Weather History for Joplin, MO

Change the Weather History Date:

Saturday, February 16, 2013

  Actual Average Record
Temperature  
Mean Temperature 31 °F 40 °F  
Max Temperature 36 °F 51 °F 81 °F (1961)
Min Temperature 25 °F 29 °F 4 °F (1958)
Degree Days  
Heating Degree Days 34 25  
Month to date heating degree days 401 430  
Since 1 July heating degree days 2754 2979  
Cooling Degree Days 0 0  
Month to date cooling degree days 0 0  
Year to date cooling degree days 1 0  
Moisture  
Dew Point 21 °F    
Average Humidity 68    
Maximum Humidity 92    
Minimum Humidity 44    
Precipitation  
Precipitation T in 0.08 in 1.19 in (2008)
Month to date precipitation 0.82 1.22  
Year to date precipitation 3.27 3.25  
Snow  
Snow T in - - ()
Month to date snowfall 0.3  
Snow Depth T in    
Sea Level Pressure  
Sea Level Pressure 30.28 in    
Wind  
Wind Speed 8 mph (West)    
Max Wind Speed 14 mph    
Max Gust Speed 17 mph    
Visibility 9 miles    
Events Snow    
T = Trace of Precipitation, MM = Missing Value Source: NWS Daily Summary

Daily Weather History Graph

Daily Weather History Graph

Search for Another Location

Airport:

Trip Planner

Search our weather history database for the weather conditions in past years. The results will help you decide how hot, cold, wet, or windy it might be!

Date:

Astronomy

Feb. 16, 2013 Rise Set
Actual Time 7:05 AM CST 5:59 PM CST
Civil Twilight 6:38 AM CST 6:25 PM CST
Nautical Twilight 6:08 AM CST 6:56 PM CST
Astronomical Twilight 5:38 AM CST 7:26 PM CST
Moon 10:28 AM CST (2/16) No Moon Set
Length of Visible Light 11h 47m
Length of Day
10h 53m
Waxing Crescent, 39% of the Moon is Illuminated
Feb 16
Waxing Crescent
Feb 17
First Quarter
Feb 25
Full
Mar 4
Last Quarter
Mar 11
New

Hourly Weather History & Observations

Time (CST) Temp. Windchill Dew Point Humidity Pressure Visibility Wind Dir Wind Speed Gust Speed Precip Events Conditions
12:43 AM 28.4 °F 18.5 °F 24.8 °F 86% 30.30 in 2.5 mi NW 11.5 mph - 0.00 in Snow Light Snow
12:51 AM 28.4 °F 21.2 °F 24.8 °F 86% 30.30 in 1.2 mi NW 6.9 mph - 0.00 in Snow Light Snow
12:53 AM 28.0 °F 20.0 °F 25.0 °F 88% 30.32 in 1.2 mi NW 8.1 mph - 0.00 in Snow Light Snow
1:06 AM 28.4 °F 22.2 °F 26.6 °F 93% 30.29 in 3.0 mi NW 5.8 mph - 0.00 in Snow Light Snow
1:21 AM 26.6 °F 21.2 °F 26.6 °F 100% 30.29 in 9.0 mi West 4.6 mph - 0.00 in   Overcast
1:53 AM 28.0 °F 20.0 °F 26.1 °F 92% 30.31 in 10.0 mi West 8.1 mph - 0.00 in   Mostly Cloudy
2:53 AM 27.0 °F 17.3 °F 24.1 °F 89% 30.31 in 10.0 mi WNW 10.4 mph - N/A   Overcast
3:40 AM 24.8 °F 15.3 °F 21.2 °F 86% 30.27 in 10.0 mi WNW 9.2 mph - N/A   Scattered Clouds
3:53 AM 26.1 °F 15.6 °F 21.9 °F 84% 30.30 in 10.0 mi WNW 11.5 mph - N/A   Mostly Cloudy
4:53 AM 25.0 °F 14.2 °F 21.9 °F 88% 30.32 in 10.0 mi NW 11.5 mph - N/A   Overcast
5:18 AM 26.6 °F 16.8 °F 21.2 °F 80% 30.30 in 10.0 mi NW 10.4 mph - N/A   Overcast
6:24 AM 26.6 °F 18.2 °F 21.2 °F 80% 30.31 in 10.0 mi North 8.1 mph - 0.00 in   Overcast
6:53 AM 25.0 °F 17.1 °F 21.9 °F 88% 30.34 in 10.0 mi North 6.9 mph - 0.00 in   Overcast
7:53 AM 26.1 °F 21.9 °F 23.0 °F 88% 30.36 in 10.0 mi NNW 3.5 mph - N/A   Mostly Cloudy
8:06 AM 26.6 °F 20.0 °F 23.0 °F 86% 30.34 in 9.0 mi NNW 5.8 mph - N/A   Mostly Cloudy
8:53 AM 27.0 °F 20.5 °F 21.9 °F 81% 30.37 in 10.0 mi NNW 5.8 mph - N/A   Mostly Cloudy
9:21 AM 28.4 °F 23.3 °F 19.4 °F 69% 30.34 in 10.0 mi Variable 4.6 mph - N/A   Scattered Clouds
9:53 AM 28.9 °F 22.8 °F 21.0 °F 72% 30.37 in 10.0 mi North 5.8 mph - N/A   Mostly Cloudy
10:53 AM 28.9 °F 22.8 °F 19.0 °F 67% 30.36 in 10.0 mi NW 5.8 mph - N/A   Mostly Cloudy
11:53 AM 30.9 °F 22.8 °F 19.0 °F 61% 30.34 in 10.0 mi West 9.2 mph - N/A   Mostly Cloudy
12:53 PM 34.0 °F 28.0 °F 19.9 °F 56% 30.30 in 10.0 mi West 6.9 mph - N/A   Overcast
1:53 PM 36.0 °F 30.3 °F 16.0 °F 44% 30.25 in 10.0 mi SW 6.9 mph - N/A   Overcast
2:53 PM 36.0 °F 28.5 °F 17.1 °F 46% 30.23 in 10.0 mi SSW 10.4 mph - N/A   Overcast
3:53 PM 35.1 °F 26.9 °F 18.0 °F 50% 30.22 in 10.0 mi SW 11.5 mph - N/A   Overcast
4:53 PM 35.1 °F 27.9 °F 19.0 °F 52% 30.20 in 10.0 mi South 9.2 mph - N/A   Overcast
5:53 PM 35.1 °F 29.3 °F 16.0 °F 46% 30.20 in 10.0 mi SW 6.9 mph - N/A   Overcast
6:53 PM 34.0 °F 29.8 °F 18.0 °F 52% 30.20 in 10.0 mi South 4.6 mph - N/A   Overcast
7:53 PM 34.0 °F 29.8 °F 19.0 °F 54% 30.18 in 10.0 mi SSE 4.6 mph - N/A   Overcast
8:53 PM 35.1 °F 31.0 °F 18.0 °F 50% 30.17 in 10.0 mi SSE 4.6 mph - N/A   Overcast
9:53 PM 35.1 °F 29.3 °F 18.0 °F 50% 30.16 in 10.0 mi SSE 6.9 mph - N/A   Overcast
10:53 PM 36.0 °F 31.1 °F 16.0 °F 44% 30.14 in 10.0 mi SSE 5.8 mph - N/A   Overcast
11:53 PM 36.0 °F 28.0 °F 15.1 °F 43% 30.13 in 10.0 mi South 11.5 mph - N/A   Overcast